Showing default

CAPELLA-17 (ACADIA), 64583

Orbit data source: Space-Track

CAPELLA-17 (ACADIA), 64583 is a payload satellite owned by Capella Space (US) in SSO that was launched on Mon, 23 Jun 2025 UTC via an FALCON 9 launch vehicle from the Air Force Western Test Range (AFWTR). Payload-class satellites include a variety of spacecraft equipped with specific instruments for various scientific and technological missions. These include communications satellites like Starlink; space stations such as the ISS; scientific satellites like the Hubble; Earth observation satellites from companies like Planet Labs, Umbra, and HawkEye 360; GPS; miniature CubeSats for education and research; and military/defense satellites.

Loading next visibility...
Identifier
64583, 2025-135BH
Orbit
SSO
Country
Flag of USUS
Related business
Manufacturer
Capella Space
Mission
Operational Commercial Radar Imaging
Bus & Motor
ACADIA, Unknown motor
Mass
180 kg wet, ~150 kg dry
Launch date (UTC)
2025-06-23 (6 months ago)
Launch vehicle
FALCON 9
Launch site
Air Force Western Test Range (AFWTR)
Object type
Payload
Rocket body
Debris
Shape & HBR
Box + 2 Pan + 1 Dish + 1 Rod, 1.8 m
Radar Cross Section
0.463 m², Large (>1 m²)

Expand to show TLE details & history
Last TLE update: 15 hours ago

TLE from 15 hours ago
0 CAPELLA-17 (ACADIA)
1 64583U 25135BH  25340.90871526  .00009304  00000-0  96662-3 0  9992
2 64583  97.7606  92.7872 0004925 249.7975 110.2713 14.90119309 25202
Epoch: 2025-12-06T21:48Z
TLE epoch observation values (Epoch: 2025-12-06T21:48:32.998Z)
Latitude
-0.00007°
Longitude
49.72002°
Altitude
601.795 km
Speed
7.558 km/s
True Right ascension
06h 11m 08s
True Declination
0° 00' 00"
Sunlit
Object was in full shadow at epoch
Visualization orbit readout
Latitude
Unknown
Longitude
Unknown
Altitude
Unknown
Speed
Unknown
Apparent Right ascension
Unknown
Apparent Declination
Unknown
Sunlit
N/A
Visualization observer readout
Local Sidereal Time
10:41:26
Azimuth
Unknown
Elevation
Unknown
Doppler factor
Unknown
Orbital elements
Apogee altitude
598.018 km
Perigee altitude
591.15 km
Semi-major axis
6,972.721 km
Eccentricity
0.00049
Inclination
97.7606°
RAAN
92.7872°
Arg. of periapsis
249.7975°
True anomaly
110.32423°
Mean anomaly
110.2713°
Eccentric anomaly
110.29777°
Mean motion
3.72769 °/min
Orbital period
96.57 mins
BSTAR
0.00096662
Loading maneuver chart data...
Computing Atmospheric mass density...
Loading historical data...
Loading historical data...
Loading historical data...
Loading historical data...
Loading historical data...
Loading historical data...
Loading historical data...

Documentation

Showing up to 5 results
|